Weather in Gordeevka

Russia / Bryansk Oblast     52°57′28″N   31°58′12″E
temp.,
°C
wind,
m/s
gust,
m/s
humid.,
%
clouds,
%
prec.,
mm/h
press.,
hPa
HPBL,
m
4 august, wed
wed400:00+14w22715 0.0 101522
03:00+15w2364100 0.0 101661
06:00+16w1163100 0.0 101611
09:00+20wsw2357100 0.0 1017538
12:00+22w3448100 0.0 10171603
15:00+24w344098 0.0 10172397
18:00+22ne2255100 0.0 101692
21:00+17ese346191 0.0 101666
5 august, thu
thu500:00+16se41063100 0.0 1016158
03:00+17sse51059100 0.0 1015284
06:00+15se4884100 0.4 1014200
09:00+18sse587289 0.6 1014441
12:00+23ssw4657100 0.3 10131534
15:00+26wsw5648100 0.3 10111794
18:00+23nw6664100 0.2 1011333
21:00+17nne41090100 3.6 1011274
6 august, fri
fri600:00+17ene4994100 0.7 1010274
03:00+17e3795100 0.8 1008182
06:00+17e4597100 3.2 1006136
09:00+20sse578394 3.8 1006400
12:00+26s6955100 0.0 10061130
15:00+25s3861100 0.0 1005389
18:00+20s4148794 10.9 1005485
21:00+19s389181 10.9 1005165
7 august, sat
sat700:00+18s369260 0.0 1006113
03:00+18s3490100 0.1 100671
06:00+18ese1196100 3.9 100617
09:00+20ssw238976 4.9 1007437
12:00+19wnw448573 0.1 1008436
15:00+22w446861 0.1 1009769
18:00+22w4563100 0.0 10091065
21:00+16wnw510775 0.0 1012379
8 august, sun
sun800:00+13wnw379141 0.0 1013142
03:00+12wnw34940 0.0 101455
06:00+12w34930 0.0 101471
09:00+18wnw46720 0.0 1015585
12:00+22nw45510 0.0 10151299
15:00+24nw45410 0.0 10151611
18:00+24nw244770 0.0 10151601
21:00+18ne116698 0.0 101611